119  
ASUS44 KLIX 191915  
RWRLIX  
NEW ORLEANS REGIONAL WEATHER ROUNDUP  
NATIONAL WEATHER SERVICE NEW ORLEANS LA  
200 PM CDT TUE MAR 19 2019  
 
NOTE: "FAIR" INDICATES FEW OR NO CLOUDS BELOW 12,000 FEET WITH NO  
SIGNIFICANT WEATHER AND/OR S TO VISIBILITY
.  
SKY/WX - SKY CONDITION AND SIGNIFICANT WEATHER.  
TMP - AIR TEMPERATURE. DP - DEWPOINT TEMPERATURE.  
RH - RELATIVE HUMIDITY. PRES - PRESSURE.  
HI - HEAT INDEX. WCI - WIND CHILL INDEX.  
 
* THESE STATIONS ARE NOT NWS OR FAA STATIONS AND ARE NOT UNDER  
NWS QUALITY CONTROL.  
 
LAZ038-040-048-061>063-065>067-069-192000-  
SOUTHEAST LOUISIANA  
 
CITY SKY/WX TMP DP RH WIND PRES REMARKS
 
N.O. INTL ARPT FAIR 63 30 28 NE9 30.27F  
N.O. LAKEFRONT FAIR 62 32 32 NW5 30.28F  
N.O. DOWNTOWN* FAIR 63 28 26 VRB6 30.27F  
RESERVE* FAIR 65 30 27 E9 30.27F  
SLIDELL FAIR 65 23 20 N9G20 30.27F  
BATON ROUGE FAIR 68 31 25 N10G25 30.27F  
BOOTHVILLE FAIR 58 38 47 NE10G20 30.28F  
BELLE CHASSE FAIR 63 34 33 N8G16 30.26F  
BOGALUSA* FAIR 64 20 18 NE13 30.30F  
GALLIANO* FAIR 63 34 33 NE8 30.28F  
NEW ROADS* FAIR 66 34 30 NE3 30.28F  
GONZALES* FAIR 67 31 25 NE12G17 30.26F  
HAMMOND* FAIR 66 28 24 NE7G17 30.28F  
HOUMA* SUNNY 66 30 26 NE14 30.27F  
PORT FOURCHON* CLEAR 61 37 41 NE16G22 30.26F  
 

 
 
MSZ070-080>082-192000-  
SOUTHERN MISSISSIPPI  
 
CITY SKY/WX TMP DP RH WIND PRES REMARKS
 
MCCOMB FAIR 65 20 17 N13G21 30.28F  
GULFPORT FAIR 65 23 20 N8 30.26F  
BILOXI NOT AVBL  
PASCAGOULA FAIR 68 25 19 N7G20 30.26F  
STENNIS ARPT* SUNNY 63 18 17 NE12 30.27F  
 

 
 
COASTAL OBSERVATIONS  
LAKE AND NEARSHORE STATIONS  
 
STATION/POSITION TIME SKY/WX TEMP WIND PRES WAVE
 
AIR SEA DIR/SP/G HT/PER  
(UTC) (F) (DEG/KT/KT) (MB) (FT/S)  
WAVELAND YACHT 1848 60 58 40/ 5/ 8 1025.1  
GRAND ISLE 1848 59 60 60/ 14/ 17 1024.9  
SOUTHWEST PASS 1848 40/ 22/ 24 N/A  
NEW CANAL 1848 58 57 350/ 3/ 4 1025.2  
SHELL BEACH 1848 58 63 50/ 11/ 11 1025.2  
 
OFFSHORE STATIONS  
 
STATION/POSITION TIME SKY/WX TEMP WIND PRES WAVE
 
AIR SEA DIR/SP/G HT/PER  
(UTC) (F) (DEG/KT/KT) (MB) (FT/S)  
64 S DAUPHIN ISL 1850 20/ 14/ 21 1024.5 5/ 7  
 

 
 
 
 
CLICK HERE TO GO TO PREVIOUS BULLETINS.

The Nexlab LA Page
The Nexlab MS Page Main Text Page